Location: Warszawa
(52.2500°N, 21.0000°E)
Time: 23:21:40
(UTC+02:00)

AO-27 - Pass Details

Date: 27 April 2024
Orbit: 783 x 797 km, 98.8° (Epoch: 26 May)

Event Time Altitude Azimuth Distance (km) Brightness Sun altitude
Exits shadow 21:58:30 - 201° (SSW) 3,207 10.5 -15.6°
Reaches altitude 10° 22:01:00 10° 214° (SSW) 2,366 10.0 -15.8°
Maximum altitude 22:05:14 25° 268° (W) 1,580 9.6 -16.2°
Drops below altitude 10° 22:09:30 10° 323° (NW) 2,379 11.5 -16.6°
Sets 22:12:16 0° 336° (NNW) 3,313 12.5 -16.9°
